Regional Weather Roundup
Issued by NWS Green Bay, WI

Home | Current Version | Previous Version | Graphics & Text | Print | Product List | Glossary Off
Versions: 1 2 3 4 5 6 7 8 9 10 11 12 13 14 15 16 17 18 19 20 21 22 23 24 25 26 27 28 29 30 31 32 33 34 35 36 37 38 39 40 41 42 43 44 45 46 47 48 49 50

000
ASUS43 KGRB 010411
RWRGRB

NORTH-CENTRAL AND NORTHEAST WISCONSIN REGIONAL WEATHER ROUNDUP
NATIONAL WEATHER SERVICE GREEN BAY WI
1100 PM CDT TUE MAY 31 2016

WIZ005-009-010>012-018-019-010500-
NORTH CENTRAL WISCONSIN

CITY           SKY/WX    TMP DP  RH WIND       PRES   REMARKS
IRONWOOD       CLOUDY    61  59  94 SE6       29.87F
MANITOWISH WTR RAIN      58  58 100 SE5       29.91F
ARBOR VITAE    LGT RAIN  59  58  94 SE8       29.92F
EAGLE RIVER    LGT RAIN  59  51  76 SE10      29.93F
LAND O LAKES   DRIZZLE   59  53  78 SE8       29.94F
RHINELANDER    LGT RAIN  59  55  87 SE9       29.94F
PHILLIPS       DRIZZLE   59  59 100 SE3       29.89F
ANTIGO         CLOUDY    58  56  96 SE8       29.95F
TOMAHAWK       RAIN      59  58  95 SE3       29.93S
MERRILL        LGT RAIN  62  62 100 SE8       29.93F
$$

WIZ013-073-010500-
NORTHEAST WISCONSIN

CITY           SKY/WX    TMP DP  RH WIND       PRES   REMARKS
IRON MOUNTAIN  CLOUDY    59  48  67 SE8       29.96F
MARINETTE      CLOUDY    59  53  80 CALM      29.97F
OCONTO         CLOUDY    58  58 100 CALM      29.95S
$$

WIZ017-030-035>037-045-010500-
CENTRAL WISCONSIN

CITY           SKY/WX    TMP DP  RH WIND       PRES   REMARKS
MEDFORD        RAIN      60  60 100 SE9       29.91S
WAUSAU         LGT RAIN  63  61  93 S12       29.92S
MOSINEE        LGT RAIN  61  61 100 S8        29.95S
MARSHFIELD     RAIN      62  59  90 SE7       29.92F
WISC RAPIDS    RAIN      61  59  93 SE5       29.95F
STEVENS POINT  LGT RAIN  60  60  98 S3        29.96F
WAUPACA        CLOUDY    67  62  84 CALM      29.96R
SHAWANO        CLOUDY    62  57  84 E5        29.96S
CLINTONVILLE   CLOUDY    63  55  77 SE5       29.96R
WAUTOMA        CLOUDY   N/A N/A N/A CALM      29.95R
$$

WIZ038-039-048-051-010500-
FOX VALLEY

CITY           SKY/WX    TMP DP  RH WIND       PRES   REMARKS
NWS GREEN BAY  CLOUDY    59  53  80 E5        29.95F
APPLETON       CLOUDY    63  55  77 VRB5      29.95R
OSHKOSH        CLOUDY    65  59  81 SE8       29.95R
FOND DU LAC    CLOUDY    64  59  83 S9        29.95R
$$

WIZ022-050-052-010500-
EAST CENTRAL WISCONSIN

CITY           SKY/WX    TMP DP  RH WIND       PRES   REMARKS
EPHRAIM        MOCLDY    59  50  72 SE3       29.97F
STURGEON BAY   LGT RAIN  60  50  69 E8        29.97F
MANITOWOC      CLOUDY    56  50  80 SE6       29.96F
SHEBOYGAN      CLOUDY    56  51  84 CALM      29.97S
$$

LMZ563-521-522-541>543-010500-
LAKESHORE

STATION/POSITION TIME  TEMP    WIND        PRES    VSBY  WAVE
                       AIR SEA DIR/SP/G                  HT/PER
                 (UTC) (F)     (DEG/KT/KT) (MB)    (MI)  (FT/S)
SHEBOYGAN LKSHOR 0400   54      CALM  /  2 1015.0F
KEWAUNEE LKSHORE 0300                      1014.3F
ALGOMA MARINA    0317             CALM       N/A
NORTHPORT PIER   0300   58     130/  3/  6 1015.6S
N MID LAKE BUOY  0350   53 48  110/  8/  8 1014.7F         1/ 3
SISTER BAY LKSHO 0320   59     130/  8/ 12   N/A
CHAMBERS ISLAND  0300   63      CALM  /  5 1015.2S
MENOMINEE LKSHOR 0300                      1014.3F
$$



USA.gov is the U.S. government's official web portal to all federal, state and local government web resources and services.